Wind_Speed
55 53 53 55 54 49 51 49 51 51 50 48 48 47 47 46 45 46 48 49 47 46 49 50 50 50 49 49 49 48 48 46 46 46 46 46 46 45 46 46 45 44 44 44
55 57 56 53 49 49 51 49 54 53 48 46 50 52 50 48 47 48 49 51 52 52 52 54 55 55 54 54 54 53 53 52 51 51 51 50 50 50 50 50 49 49 50 50
59 59 54 53 51 52 55 53 56 51 50 49 54 56 54 52 50 51 52 54 55 56 56 57 58 60 60 59 59 58 58 57 57 57 57 57 56 55 55 55 55 54 55 56
57 57 56 55 55 56 57 57 56 49 50 54 58 56 55 54 52 52 54 55 58 60 60 61 61 62 64 65 65 64 63 63 63 62 63 63 62 62 61 61 60 60 60 60
59 57 58 58 60 57 60 59 57 53 57 57 55 55 56 56 55 57 59 60 60 62 63 63 64 64 65 68 70 70 70 69 69 69 69 68 68 68 67 67 66 66 66 66
55 57 58 59 60 60 62 59 60 57 58 53 56 56 61 59 60 63 63 63 63 64 66 67 67 67 69 70 72 74 75 75 75 75 75 75 74 75 74 74 74 74 73 73
54 56 58 59 59 60 60 60 60 60 57 51 65 65 55 61 66 67 67 67 69 69 69 70 70 71 72 73 74 75 76 78 79 80 81 81 81 82 81 81 81 81 81 81
52 54 56 58 59 60 61 62 60 60 57 60 67 61 54 64 69 72 72 73 73 74 75 75 76 76 77 78 79 80 81 82 82 83 84 86 86 86 86 87 87 87 87 87
52 53 56 57 59 60 61 60 64 64 64 65 67 62 62 62 70 76 78 79 79 79 80 80 81 82 83 83 84 85 85 86 87 88 89 89 90 91 92 93 93 93 93 93
55 55 56 58 60 60 61 64 67 66 67 68 67 67 65 68 71 77 80 82 84 85 86 87 86 87 87 88 89 89 90 91 92 93 93 94 95 96 97 98 99 99 99 99
59 60 60 60 60 62 65 66 68 70 70 71 71 68 68 71 75 76 79 81 84 86 88 90 91 92 93 93 94 95 96 97 98 99 100 101 101 102 103 103 104 104 105 105
63 63 63 64 65 66 66 68 70 72 72 73 74 70 72 75 77 79 82 82 85 87 88 90 92 95 96 97 98 100 101 102 102 103 104 105 106 106 107 108 109 109 110 110
63 63 65 66 67 67 70 72 73 74 75 75 76 72 76 78 80 82 83 85 88 90 91 93 94 96 97 99 100 102 103 104 106 107 108 109 110 111 111 112 113 114 114 115
65 64 65 68 69 71 71 73 75 76 77 77 77 78 80 82 84 86 88 90 92 94 95 97 98 100 101 103 105 107 108 109 110 111 112 113 115 115 116 117 118 119 120 121
69 68 69 70 70 72 74 75 76 77 79 81 82 84 85 87 88 90 91 93 95 96 98 99 101 103 105 107 109 110 112 113 114 116 117 119 120 121 122 123 124 125 125 126
75 73 73 73 74 76 77 79 81 83 84 86 88 89 90 90 91 93 95 96 98 99 101 103 105 108 110 111 113 115 117 119 120 121 123 125 126 127 128 129 130 131 132 133
76 76 78 80 82 83 81 80 84 86 87 89 90 91 93 94 96 97 98 100 102 104 106 108 110 112 114 115 117 119 120 122 123 124 126 128 129 130 131 132 134 135 136 137
83 82 83 82 84 84 84 87 89 91 93 94 95 96 97 99 101 103 104 106 108 111 113 115 117 119 121 122 124 126 128 129 130 131 133 134 136 137 138 139 141 142 143 144
89 88 89 88 88 88 87 89 91 93 95 97 98 100 101 103 105 108 110 112 114 116 118 120 122 124 127 128 130 132 135 136 138 140 142 145 146 147 149 150 151 152 153 155
96 96 95 93 94 94 93 96 97 99 102 103 105 107 109 111 113 116 118 120 122 125 127 130 132 135 137 139 140 141 142 143 144 145 147 148 148 149 150 150 151 152 153 154
98 98 97 97 99 100 101 102 104 106 108 110 112 114 116 119 121 123 126 129 132 134 136 136 137 138 139 141 142 143 143 144 144 145 145 145 143 142 141 141 142 142 143 143
94 97 99 101 103 104 106 108 111 112 114 116 117 120 122 123 124 125 127 129 131 133 135 136 137 139 139 138 136 136 136 136 136 137 137 137 136 135 134 133 134 133 134 134
91 93 96 98 100 101 103 105 107 109 110 112 114 116 119 121 123 125 126 127 127 127 128 128 128 128 128 127 127 127 127 127 126 126 126 125 124 123 123 122 123 122 123 122
86 88 90 91 93 96 99 101 103 105 107 110 111 113 115 116 116 116 116 115 116 116 117 118 119 120 121 120 119 118 118 117 117 116 115 114 113 113 113 112 112 113 115 114
82 85 86 86 88 90 92 94 97 99 102 104 105 106 106 106 106 108 110 110 111 112 111 112 113 114 113 111 111 110 107 107 107 107 108 108 108 108 108 107 107 107 108 107
77 78 81 84 86 87 88 90 91 92 93 95 97 99 100 101 103 103 104 104 104 104 103 103 102 103 102 100 102 102 99 99 98 98 99 98 98 98 97 96 97 97 97 99
Wind_Direction
216 218 221 219 221 223 223 225 229 230 233 234 229 229 231 235 236 236 237 238 240 241 241 241 241 239 239 239 240 241 240 239 240 241 241 241 242 242 243 243 243 243 245 246
213 217 219 221 223 225 227 225 230 231 234 235 232 228 230 232 236 237 239 239 241 243 244 243 243 244 242 242 242 243 244 243 243 244 244 244 243 243 244 245 244 246 247 247
213 218 220 222 222 224 227 226 231 234 234 235 233 227 229 232 235 239 241 243 245 247 248 246 245 245 246 245 245 245 245 247 247 247 247 247 247 246 246 247 247 247 249 249
212 216 218 219 221 223 228 228 230 235 237 235 235 231 229 232 235 240 242 244 246 248 249 247 245 245 246 247 248 249 248 248 249 250 250 250 250 250 250 250 250 250 251 252
210 214 216 218 222 224 229 233 232 231 236 236 238 236 234 234 236 241 242 244 246 248 249 251 250 248 248 248 248 249 250 251 251 252 253 254 254 254 253 253 253 253 253 254
213 215 217 220 223 225 230 234 236 234 236 240 243 240 234 235 238 241 243 245 248 250 250 250 251 251 251 250 250 251 251 252 253 253 254 255 256 256 256 256 256 255 254 255
215 218 221 222 227 229 234 238 240 239 238 239 242 241 239 237 239 242 244 245 247 249 251 252 253 255 255 255 255 255 255 255 255 256 256 257 257 258 258 258 259 259 259 258
219 223 226 228 230 232 236 238 241 243 241 239 242 245 242 240 240 244 245 246 247 249 251 253 254 255 256 257 258 258 258 259 259 259 259 260 260 260 260 260 260 261 261 261
223 227 230 232 234 235 238 242 242 244 243 242 244 245 244 242 242 243 245 247 249 250 251 252 254 255 256 257 257 258 259 260 261 261 261 262 262 262 262 262 262 262 262 262
227 229 234 235 236 239 242 243 246 246 246 245 245 246 244 245 244 244 245 247 249 250 251 253 254 255 256 257 258 258 259 260 260 261 261 261 262 262 262 263 263 263 263 263
230 231 235 238 240 241 242 244 246 248 247 249 248 249 249 248 248 249 249 250 250 251 253 254 256 256 257 258 259 260 261 261 261 262 262 263 263 263 263 263 263 263 263 263
234 233 235 239 241 243 245 247 249 250 251 251 252 250 252 252 253 253 253 254 254 255 256 256 257 258 259 259 259 260 261 262 263 263 264 264 265 265 265 265 264 264 264 264
241 238 238 241 243 246 246 246 248 250 252 253 254 253 253 254 254 254 255 256 257 258 259 259 260 260 261 261 262 262 263 263 263 264 264 264 265 265 265 265 265 265 265 265
242 242 242 243 245 246 247 248 249 250 252 254 254 255 255 255 256 256 256 256 257 257 258 259 260 262 262 263 264 264 264 264 264 264 265 265 265 265 265 265 265 265 265 266
242 242 243 243 244 247 249 251 253 255 255 257 257 257 257 257 258 258 258 259 260 260 261 261 262 262 262 263 263 264 265 266 266 267 267 267 267 267 267 267 267 267 267 267
245 246 246 245 246 247 249 251 252 253 254 255 255 257 258 260 261 261 261 262 263 264 264 264 264 265 265 265 265 265 265 265 265 266 266 267 267 267 268 268 268 268 268 268
245 246 248 249 249 249 251 253 255 256 258 259 260 261 262 263 264 265 265 266 266 265 265 266 266 267 267 267 267 268 268 268 268 268 268 268 267 267 268 268 267 267 267 267
246 246 247 249 251 253 254 255 257 258 259 261 262 263 264 265 266 267 267 267 268 268 268 268 269 269 269 270 270 270 270 270 270 270 269 269 269 269 268 268 268 268 268 267
248 249 250 252 253 254 256 258 259 260 261 262 263 265 265 266 267 268 269 270 271 271 272 272 272 273 273 273 273 273 273 272 272 272 272 271 271 270 270 269 268 267 266 266
247 248 249 251 254 255 257 258 260 261 262 263 264 265 267 268 269 270 271 272 272 273 274 274 274 274 275 275 275 275 275 274 274 274 273 273 272 271 271 271 270 269 268 267
251 252 253 255 257 258 259 260 260 261 262 263 265 267 268 269 270 271 272 273 273 274 274 274 275 275 276 276 277 277 276 276 276 276 276 276 275 274 274 273 272 271 270 269
250 251 253 255 256 257 259 261 262 263 265 266 267 269 270 270 271 272 273 274 274 275 276 276 276 277 277 278 278 277 277 276 276 276 276 275 275 275 275 274 273 272 271 270
249 252 254 256 257 260 261 263 264 266 267 268 269 270 271 272 273 274 275 276 277 278 278 279 279 279 278 278 278 278 278 278 279 278 278 277 277 276 275 274 274 273 272 271
252 253 255 257 259 261 263 264 265 266 268 269 270 272 273 275 276 278 279 280 280 280 280 280 280 280 281 281 281 281 281 281 280 280 279 279 278 277 276 275 274 274 273 272
256 256 258 259 261 263 264 266 268 269 270 272 273 275 277 279 280 281 282 282 282 282 282 283 284 284 283 284 284 283 283 282 281 280 279 278 278 277 276 276 275 274 273 272
256 257 259 261 264 266 268 269 271 273 275 276 278 279 280 282 282 282 282 283 284 284 285 285 285 284 284 284 284 284 284 283 282 281 280 279 278 278 277 277 277 275 274 274
Height
10539 10548 10552 10555 10561 10572 10579 10587 10593 10604 10611 10614 10619 10623 10627 10630 10636 10640 10644 10648 10651 10654 10657 10659 10663 10666 10669 10672 10674 10677 10679 10681 10683 10685 10688 10690 10693 10695 10697 10699 10701 10705 10706 10708
10531 10532 10540 10549 10560 10564 10569 10579 10583 10594 10600 10607 10609 10612 10617 10622 10626 10631 10634 10638 10641 10644 10646 10649 10652 10655 10658 10661 10664 10666 10669 10671 10673 10675 10677 10680 10682 10684 10686 10688 10691 10693 10695 10697
10516 10523 10536 10542 10550 10554 10557 10569 10573 10583 10589 10593 10595 10601 10607 10612 10616 10619 10624 10627 10630 10632 10635 10637 10640 10643 10646 10649 10652 10655 10657 10659 10661 10663 10665 10668 10670 10673 10675 10677 10679 10682 10683 10684
10510 10517 10526 10532 10538 10544 10549 10557 10565 10573 10576 10578 10582 10592 10598 10603 10607 10610 10612 10614 10616 10619 10621 10624 10627 10630 10632 10636 10639 10641 10644 10646 10648 10649 10651 10653 10656 10659 10661 10664 10666 10669 10670 10670
10498 10507 10515 10522 10525 10536 10538 10543 10553 10560 10559 10564 10574 10584 10589 10592 10597 10596 10597 10599 10602 10605 10608 10610 10613 10617 10619 10622 10624 10627 10629 10631 10633 10635 10636 10638 10641 10643 10646 10649 10651 10653 10655 10656
10494 10498 10507 10512 10518 10524 10525 10532 10537 10547 10550 10561 10563 10570 10575 10582 10582 10581 10583 10587 10589 10591 10593 10595 10598 10601 10604 10607 10609 10611 10614 10616 10618 10619 10621 10623 10624 10626 10628 10631 10633 10636 10638 10638
10484 10490 10497 10503 10509 10516 10518 10521 10526 10535 10545 10557 10544 10550 10569 10571 10566 10567 10570 10572 10573 10575 10578 10580 10583 10586 10588 10590 10592 10595 10596 10598 10600 10602 10604 10605 10606 10607 10609 10611 10613 10615 10618 10620
10479 10485 10489 10494 10499 10504 10504 10506 10516 10521 10534 10536 10530 10543 10560 10556 10554 10552 10553 10555 10557 10559 10561 10563 10565 10568 10570 10572 10574 10575 10577 10578 10580 10581 10583 10585 10586 10587 10588 10590 10592 10594 10596 10597
10470 10476 10478 10483 10487 10491 10496 10501 10501 10506 10513 10517 10521 10534 10539 10543 10542 10537 10536 10537 10539 10542 10544 10546 10547 10548 10549 10551 10553 10555 10556 10558 10559 10560 10561 10562 10563 10564 10565 10565 10567 10569 10571 10572
10460 10464 10467 10471 10475 10481 10486 10486 10487 10493 10497 10501 10509 10514 10523 10522 10522 10519 10520 10521 10522 10522 10523 10524 10526 10528 10529 10530 10532 10533 10534 10534 10535 10536 10537 10538 10538 10539 10540 10540 10541 10542 10544 10546
10445 10452 10455 10458 10465 10466 10469 10472 10473 10475 10480 10484 10491 10500 10503 10502 10501 10504 10503 10503 10503 10504 10505 10505 10505 10506 10507 10508 10508 10509 10509 10510 10510 10510 10511 10511 10512 10512 10513 10513 10513 10514 10515 10516
10431 10438 10443 10444 10448 10452 10455 10458 10459 10460 10465 10467 10471 10484 10484 10482 10482 10482 10483 10485 10483 10483 10484 10485 10484 10484 10484 10484 10484 10484 10484 10484 10484 10484 10483 10483 10483 10483 10483 10483 10483 10483 10483 10485
10418 10427 10429 10430 10434 10437 10439 10441 10442 10444 10446 10451 10453 10465 10459 10460 10460 10461 10463 10463 10462 10462 10461 10461 10460 10460 10459 10458 10458 10457 10457 10456 10455 10454 10453 10453 10452 10452 10451 10451 10451 10451 10451 10451
10400 10408 10414 10417 10419 10419 10422 10423 10424 10426 10427 10431 10434 10437 10437 10437 10438 10438 10437 10438 10436 10438 10437 10436 10435 10434 10433 10431 10429 10428 10427 10426 10424 10423 10422 10420 10419 10418 10417 10416 10416 10417 10417 10417
10383 10390 10395 10399 10401 10402 10404 10406 10408 10409 10410 10410 10412 10412 10413 10413 10414 10414 10413 10412 10412 10412 10411 10410 10409 10407 10405 10403 10401 10398 10396 10395 10393 10391 10389 10387 10385 10384 10383 10383 10381 10380 10380 10380
10367 10373 10376 10380 10383 10384 10384 10387 10387 10386 10386 10386 10387 10387 10387 10390 10390 10390 10389 10388 10388 10387 10385 10382 10379 10376 10374 10372 10369 10366 10364 10363 10362 10359 10356 10353 10350 10348 10347 10345 10343 10342 10340 10340
10349 10352 10355 10359 10361 10362 10368 10371 10367 10367 10366 10366 10368 10367 10366 10365 10365 10364 10363 10362 10360 10357 10354 10351 10348 10345 10343 10341 10338 10333 10330 10328 10325 10322 10318 10314 10312 10310 10307 10305 10302 10300 10298 10296
10329 10332 10334 10339 10339 10342 10348 10346 10346 10345 10345 10343 10341 10341 10342 10341 10339 10336 10333 10331 10328 10325 10322 10319 10315 10311 10307 10305 10302 10296 10292 10289 10286 10282 10278 10273 10270 10267 10264 10261 10259 10256 10253 10250
10308 10311 10313 10316 10317 10322 10326 10325 10323 10322 10321 10319 10318 10317 10315 10313 10309 10306 10304 10301 10298 10294 10289 10284 10280 10275 10269 10267 10263 10257 10251 10247 10242 10235 10230 10224 10220 10217 10213 10210 10207 10204 10203 10200
10286 10288 10291 10295 10297 10299 10303 10301 10301 10300 10294 10294 10293 10290 10288 10285 10282 10276 10272 10269 10264 10259 10254 10248 10242 10235 10230 10224 10219 10211 10205 10199 10193 10186 10180 10173 10168 10165 10161 10157 10152 10148 10145 10144
10265 10268 10270 10272 10274 10276 10278 10278 10275 10273 10272 10268 10265 10263 10259 10256 10252 10246 10241 10235 10231 10223 10216 10210 10201 10192 10185 10180 10173 10164 10157 10150 10143 10136 10129 10121 10115 10110 10106 10102 10096 10093 10090 10087
10243 10244 10245 10247 10247 10249 10251 10251 10250 10248 10246 10243 10239 10234 10228 10223 10218 10212 10205 10200 10192 10185 10177 10170 10160 10150 10142 10136 10130 10120 10110 10103 10097 10090 10082 10074 10068 10062 10058 10053 10045 10042 10039 10036
10220 10221 10223 10224 10225 10225 10225 10224 10223 10221 10218 10214 10209 10204 10198 10192 10186 10179 10171 10165 10155 10148 10139 10130 10120 10109 10097 10092 10085 10078 10068 10061 10053 10043 10034 10028 10024 10018 10012 10006 10000 9995 9989 9989
10199 10201 10201 10202 10202 10201 10201 10200 10198 10194 10189 10184 10179 10174 10168 10159 10155 10145 10138 10128 10118 10109 10100 10090 10080 10070 10059 10052 10044 10036 10029 10022 10010 10001 9993 9987 9980 9973 9967 9961 9956 9951 9945 9945
10180 10181 10181 10180 10179 10179 10177 10175 10172 10167 10162 10158 10153 10147 10141 10131 10123 10114 10104 10095 10084 10072 10065 10056 10045 10033 10022 10015 10003 9993 9991 9983 9972 9963 9955 9947 9941 9933 9927 9922 9917 9912 9906 9905
10158 10159 10159 10158 10158 10157 10154 10150 10147 10142 10137 10132 10126 10120 10113 10104 10092 10083 10071 10063 10053 10043 10034 10023 10010 9999 9990 9982 9968 9957 9954 9944 9935 9928 9918 9912 9905 9896 9891 9886 9878 9873 9871 9865